Weather History for Frenchville, ME

Change the Weather History Date:

Wednesday, January 1, 2014

  Actual Average Record
Temperature  
Mean Temperature -12 °F 11 °F  
Max Temperature -3 °F 19 °F 40 °F (2011)
Min Temperature -22 °F 3 °F -22 °F (2014)
Degree Days  
Heating Degree Days 77    
Month to date heating degree days 77  
Since 1 July heating degree days 3781  
Cooling Degree Days 0    
Month to date cooling degree days 0  
Year to date cooling degree days 0  
Moisture  
Dew Point -15 °F    
Average Humidity 77    
Maximum Humidity 87    
Minimum Humidity 66    
Precipitation  
Precipitation T in 0.13 in 0.06 in (2003)
Month to date precipitation T 0.13  
Year to date precipitation T 0.13  
Sea Level Pressure  
Sea Level Pressure 30.12 in    
Wind  
Wind Speed 8 mph (NW)    
Max Wind Speed 24 mph    
Max Gust Speed 30 mph    
Visibility 6 miles    
Events Snow    
T = Trace of Precipitation, MM = Missing Value Source: NWS Daily Summary

Daily Weather History Graph

Daily Weather History Graph

Search for Another Location

Airport:

Trip Planner

Search our weather history database for the weather conditions in past years. The results will help you decide how hot, cold, wet, or windy it might be!

Date:

Astronomy

Jan. 01, 2014 Rise Set
Actual Time 7:20 AM EST 3:53 PM EST
Civil Twilight 6:44 AM EST 4:29 PM EST
Nautical Twilight 6:05 AM EST 5:08 PM EST
Astronomical Twilight 5:28 AM EST 5:45 PM EST
Moon 7:02 AM EST (1/1) 4:39 PM EST (1/1)
Length of Visible Light 9h 44m
Length of Day
8h 33m
New Moon, 0% of the Moon is Illuminated
Jan 1
New Moon
Jan 7
First Quarter
Jan 15
Full
Jan 24
Last Quarter
Jan 30
New

Hourly Weather History & Observations

Time (EST) Temp. Windchill Dew Point Humidity Pressure Visibility Wind Dir Wind Speed Gust Speed Precip Events Conditions
12:53 AM -8.0 °F - -11.0 °F 86% 30.01 in 3.0 mi Calm Calm - 0.00 in Snow Light Snow
1:01 AM -8.0 °F - -11.0 °F 86% 29.92 in 2.5 mi Calm Calm - 0.00 in Snow Light Snow
1:20 AM -9.0 °F - -13.0 °F 83% 29.93 in 2.5 mi Calm Calm - 0.00 in Snow Light Snow
1:27 AM -9.0 °F - -13.0 °F 83% 29.93 in 6.0 mi Calm Calm - 0.00 in Snow Light Snow
1:53 AM -8.0 °F -19.2 °F -11.9 °F 83% 30.02 in 2.5 mi SSW 4.6 mph - 0.00 in Snow Light Snow
2:09 AM -8.0 °F - -11.9 °F 83% 29.94 in 2.5 mi Calm Calm - 0.00 in Snow Light Snow
2:11 AM -8.0 °F - -11.9 °F 83% 29.94 in 3.0 mi Calm Calm - 0.00 in Snow Light Snow
2:53 AM -8.0 °F - -11.9 °F 83% 30.03 in 6.0 mi Calm Calm - 0.00 in   Overcast
3:53 AM -9.0 °F - -13.0 °F 83% 30.03 in 4.0 mi Calm Calm - 0.00 in Snow Light Snow
4:53 AM -11.9 °F -21.5 °F -15.0 °F 86% 30.04 in 10.0 mi NW 3.5 mph - 0.00 in   Scattered Clouds
5:53 AM -13.0 °F -22.7 °F -17.0 °F 82% 30.05 in 7.0 mi NNW 3.5 mph - N/A   Clear
6:53 AM -17.0 °F -31.7 °F -20.9 °F 82% 30.07 in 10.0 mi NW 5.8 mph - N/A   Clear
7:53 AM -15.0 °F - -18.9 °F 82% 30.10 in 10.0 mi Calm Calm - N/A   Clear
8:53 AM -16.1 °F -26.2 °F -18.9 °F 87% 30.12 in 10.0 mi SSE 3.5 mph - N/A   Clear
9:53 AM -11.0 °F - -15.0 °F 83% 30.13 in 10.0 mi Calm Calm - N/A   Clear
10:53 AM -8.0 °F -22.5 °F -13.0 °F 79% 30.13 in 10.0 mi WSW 6.9 mph - N/A   Clear
11:53 AM -5.1 °F -21.5 °F -11.9 °F 72% 30.13 in 10.0 mi SW 9.2 mph - N/A   Clear
12:42 PM -4.0 °F -19.0 °F -11.0 °F 72% 30.05 in 4.0 mi WNW 8.1 mph - N/A   Haze
12:50 PM -4.0 °F -16.3 °F -9.4 °F 78% 30.05 in 1.8 mi West 5.8 mph - 0.00 in Snow Light Snow
12:53 PM -4.0 °F -16.3 °F -9.0 °F 79% 30.14 in 1.5 mi WNW 5.8 mph - 0.00 in Snow Light Snow
1:00 PM -4.0 °F -16.3 °F -9.0 °F 79% 30.05 in 1.0 mi NW 5.8 mph - 0.00 in Snow Light Snow
1:14 PM -2.9 °F -15.0 °F -9.0 °F 75% 30.05 in 1.8 mi WNW 5.8 mph - 0.00 in Snow Light Snow
1:22 PM -2.9 °F -16.5 °F -9.0 °F 75% 30.05 in 2.0 mi WNW 6.9 mph - 0.00 in Snow Light Snow
1:25 PM -2.9 °F -16.5 °F -9.0 °F 75% 30.05 in 1.5 mi WNW 6.9 mph - 0.00 in Snow Light Snow
1:34 PM -2.9 °F -15.0 °F -8.0 °F 79% 30.05 in 1.0 mi NW 5.8 mph - 0.00 in Snow Light Snow
1:51 PM -2.2 °F -16.8 °F -7.6 °F 78% 30.06 in 1.8 mi NNW 8.1 mph - 0.00 in Snow Light Snow
1:53 PM -2.9 °F -17.7 °F -9.0 °F 75% 30.14 in 2.0 mi NNW 8.1 mph - 0.00 in Snow Light Snow
2:02 PM -2.9 °F -16.5 °F -9.0 °F 75% 30.06 in 4.0 mi NW 6.9 mph - 0.00 in   Haze
2:10 PM -2.9 °F -16.5 °F -9.0 °F 75% 30.07 in 2.5 mi NW 6.9 mph - 0.00 in   Haze
2:16 PM -2.9 °F -16.5 °F -9.0 °F 75% 30.07 in 1.5 mi NW 6.9 mph - 0.00 in Snow Light Snow
2:23 PM -2.9 °F -18.8 °F -9.0 °F 75% 30.07 in 1.5 mi NW 9.2 mph - 0.00 in Snow Light Snow
2:28 PM -2.9 °F -17.7 °F -9.0 °F 75% 30.08 in 2.0 mi WNW 8.1 mph - 0.00 in Snow Light Snow
2:40 PM -2.9 °F -20.8 °F -9.9 °F 72% 30.08 in 3.0 mi WNW 11.5 mph - 0.00 in   Haze
2:53 PM -4.0 °F -23.7 °F -11.9 °F 69% 30.17 in 10.0 mi WNW 13.8 mph 19.6 mph 0.00 in   Mostly Cloudy
3:32 PM -5.1 °F -25.1 °F -11.9 °F 72% 30.10 in 9.0 mi NNW 13.8 mph - 0.00 in   Mostly Cloudy
3:45 PM -6.0 °F -25.5 °F -11.0 °F 79% 30.11 in 1.8 mi North 12.7 mph - 0.00 in Snow Light Snow
3:53 PM -7.1 °F -29.8 °F -11.9 °F 79% 30.21 in 2.0 mi NNW 17.3 mph - 0.00 in Snow Light Snow
4:00 PM -7.1 °F -28.4 °F -13.0 °F 75% 30.12 in 4.0 mi NNW 15.0 mph 23.0 mph 0.00 in   Haze
4:13 PM -8.0 °F -29.6 °F -14.1 °F 75% 30.13 in 9.0 mi NNW 15.0 mph - 0.00 in   Overcast
4:53 PM -9.0 °F -32.4 °F -16.1 °F 71% 30.25 in 10.0 mi NW 17.3 mph - 0.00 in   Overcast
5:27 PM -11.9 °F -33.8 °F -18.0 °F 74% 30.17 in 10.0 mi NNW 13.8 mph 23.0 mph N/A   Scattered Clouds
5:53 PM -13.0 °F -36.0 °F -18.9 °F 75% 30.28 in 10.0 mi NNW 15.0 mph - N/A   Mostly Cloudy
6:00 PM -13.0 °F -35.2 °F -18.9 °F 75% 30.19 in 8.0 mi NNW 13.8 mph - N/A   Mostly Cloudy
6:14 PM -14.1 °F -38.9 °F -20.0 °F 75% 30.20 in 10.0 mi NNW 17.3 mph - N/A   Partly Cloudy
6:23 PM -14.1 °F -36.6 °F -20.0 °F 75% 30.20 in 10.0 mi NNW 13.8 mph - N/A   Partly Cloudy
6:53 PM -15.0 °F -37.7 °F -20.9 °F 75% 30.32 in 10.0 mi NW 13.8 mph - N/A   Scattered Clouds
7:06 PM -15.0 °F -36.8 °F -20.9 °F 75% 30.23 in 6.0 mi NW 12.7 mph - N/A   Haze
7:23 PM -16.1 °F -41.4 °F -20.9 °F 79% 30.23 in 7.0 mi NW 17.3 mph 23.0 mph N/A   Mostly Cloudy
7:35 PM -16.1 °F -39.9 °F -22.0 °F 74% 30.23 in 9.0 mi NNW 15.0 mph 25.3 mph N/A   Scattered Clouds
7:53 PM -17.0 °F -34.8 °F -22.0 °F 78% 30.35 in 10.0 mi NW 8.1 mph - N/A   Clear
8:53 PM -18.0 °F -41.6 °F -25.1 °F 70% 30.36 in 10.0 mi NW 13.8 mph 27.6 mph N/A   Clear
9:53 PM -20.0 °F -46.6 °F -27.0 °F 70% 30.36 in 8.0 mi NNW 17.3 mph 29.9 mph N/A   Clear
10:53 PM -20.9 °F -42.2 °F -27.9 °F 70% 30.40 in 10.0 mi NW 10.4 mph - N/A   Clear
11:53 PM -20.9 °F -42.2 °F -29.0 °F 66% 30.41 in 10.0 mi NW 10.4 mph - N/A   Clear